Погода Минеральные Воды

Погода Минеральные Воды : погода сейчас, прогноз погоды и архив. Всё, что Вы хотите узнать о погоде Минеральные Воды!

Поиск расширенной информации на нашем сайте:

Другие новости

Новости СМИ2

Главная страница сайта

Новости сайта

03.07.2017

Напоминаем, что на нашем специализированном сайте Метеоцентр.Азия вы можете получить высокодетализированные автоматические прогнозы погоды по пунктам России, СНГ и мира в авиационном формате (включающие направление и скорость ветра, видимость, явления погоды, количество и форму облачности, нижнюю и верхнюю границу облачности).


Погода Минеральные Воды - сегодня

Время (UTC), дата Ветер
(°,м/с) 
Видим.   Явления Облачность Т
(°С)
Тd
(°С)
f(%) Тe
(°С)
Pmin
(гПа)
dP
(гПа)
Po
(мм)
O2
(г/м3)
Тmin Tmax R s Состояние
почвы
18 17.11.17 060 (СВ) 4000 м  дымка  10/10 300 м кучево-дожд. 
[Cb cap]
+5.2 +4.1 93 +3  1026.7  -0.9  741  292           
21 17.11.17 070 (В) 5{11}  4000 м  дымка  10/10 300 м 
[Sc]
+3.9 +3.1 95 +2  1026.4  -0.5  741  294           
00 18.11.17 080 (В) 5{10}  4000 м  слаб. морось  10/10 300 м 
[St]
+3.4 +2.6 94 +1  1025.8  -0.6  740  294           
03 18.11.17 080 (В) 10 км  {морось}  10/10 300 м 
[Sc]
+3.7 +2.8 94 +1  1024.4  -1.3  739  293  +3.4    0.0     
06 18.11.17 090 (В) 5{10}  10 км  {морось}  10/10 300 м 
[Sc]
+4.8 +2.8 87 +3  1024.3  739  292           
09 18.11.17 100 (В) 4{10}  20000 м    10/10 600 м 
[Sc]
+6.4 +2.3 75 +5  1023.5  -0.5  739  290           
12 18.11.17 070 (В) 20000 м    10/10 600 м 
[Sc]
+5.3 +3.2 86 +4  1022.6  -1  738  291           
15 18.11.17 080 (В) 10 км    10/10 600 м 
[Sc]
+4.7 +2.3 84 +3  1022.3  -0.4  738  292    +6.8       
18 18.11.17 080 (В) 10 км    10/10 600 м 
[Sc]
+4 +2.2 88 +2  1021.5  -0.9  737  292           
21 18.11.17 060 (СВ) 20000 м  дымка  10/10 600 м 
[Sc]
+3.6 +2.4 92 +3  1020.1  -1.3  736  292           
00 19.11.17 070 (В) 4000 м  дымка  10/10 600 м 
[Sc]
+2.9 +2.2 95 +4  1019.6  -0.6  736  293           
03 19.11.17 070 (В) 4000 м  дымка  10/10 600 м 
[Sc]
+1.9 +1.3 96 +3  1018.5  -1.1  735  294  +1.9         
06 19.11.17 080 (В) 0500 м  туман  ?/?  
+2.9 +2.2 95 +2  1018.5  0.1  735  293  +1.7         
09 19.11.17 050 (СВ) 10 км  {туман}  8/4 600 м средняя 
[Sc|Ac trans]
+6.3 +3.4 82 +5  1016.3  -1.7  734  288           
12 19.11.17 060 (СВ) 20000 м  {туман}  4/0 средняя, верхняя 
[Ac trans|Ci fib]
+8.4 +4.3 75 +7  1014.7  -1.2  733  286           
15 19.11.17 080 (В) 4000 м  дымка  ясно 
+4.8 +3.7 93 +3  1015.6  0.4  733  290    +8.5       
18 19.11.17 090 (В) 4000 м  дымка  10/10 300 м 
[Sc]
+4.4 +3.6 95 +3  1015.2  -0.5  733  290           
21 19.11.17 080 (В) 4000 м  дымка  10/10 1000 м 
[Sc]
+5.1 +3.7 91 +5  1014.4  -0.7  732  289           
00 20.11.17 260 (З) 4000 м  дымка  10/10 600 м 
[Sc]
+4.4 +3.1 91 +5  1013.8  -0.6  732  290           
03 20.11.17 080 (В) 4000 м  дымка  8/5 300 м средняя 
[Sc|Ac trans]
+3.6 +2.6 93 +4  1013.4  -0.5  731  290  +3.4         
06 20.11.17 130 (ЮВ) 0500 м  туман  ?/?  
+4.3 +3.6 95 +5  1013.1  0.4  731  290  +1.3         
09 20.11.17 050 (СВ) 1000 м  дымка{туман}  10/10 300 м 
[Sc]
+7.8 +5.4 85 +8  1012.3  -1  731  285           
12 20.11.17 050 (СВ) 10 км  {туман}  ясно 
+10.4 +5.7 73 +11  1010.8  -1.1  730  282           
15 20.11.17 060 (СВ) 4000 м  дымка  ясно 
+5.8 +4.3 90 +6  1011.2  -0.3  730  287    +11       
18 20.11.17 100 (В) 2000 м  дымка  ясно 
+5.2 +4.4 95 +5  1010.3  -0.9  729  288           
Время (UTC), дата Ветер
(°,м/с) 
Видим.   Явления Облачность Т
(°С)
Тd
(°С)
f(%) Тe
(°С)
Pmin
(гПа)
dP
(гПа)
Po
(мм)
O2
(г/м3)
Тmin Tmax R s Состояние
почвы

Для получения пояснительной информации подведите курсор к названию столбца.

ПОГОДА Минеральные Воды - архив

Всё, что Вы хотите узнать о погоде Минеральные Воды - удобно и подробно!

Выберите нужную дату (начиная с 1 января 2015* года) и нажмите кнопку "Найти".
Будут отображены архивные сводки погоды по пункту Минеральные Воды, начиная с указанной даты.


Отображать данные в формате CSV (для использования в таблицах Excel)


Внимание! Наш архив погоды предназначен исключительно для личного некоммерческого использования в познавательных целях. Если Вам необходимы официальные справки о состоянии погоды (для производственных, юридических, коммерческих и т.п. целей), обращайтесь в органы Росгидромета.

*Примечание: данная дата относится к архиву по метеостанциям СССР (Россия, СНГ, Балтия).
Архив по метеостанциям Зарубежной Европы и Азии (кроме Китая) хранится 10 дней, по другим регионам земного шара (Китай, Африка, Америка, Австралия, Океания) - 1 день.

Минеральные Воды - район местоположения метеостанции


Название, широта, долгота, высота метеостанции:
Минеральные Воды 44.2°ш. 43.1°д. 316 м над ур. моря [Российская Федерация]

Дополнительная информация

В oтличие oт бoльшинства пoгoдных сайтoв мы публикуем пoдрoбную метеoинфoрмацию в детальнoм прoфессиoнальнoм фoрмате.

Характеристики температуры и влажнoсти вoздуха измеряются на высoте 2 м в тени вдали oт зданий и деревьев.
Скoрoсть ветра измеряется на высoте 10 м (на урoвне рoста челoвека скoрoсть ветра ниже в 1.5-2 раза). Если метеoстанция нахoдится в гoрoде или в лесу, тo скoрoсть ветра занижена на 2-4 м/с пo сравнению с oткрытым местoм. Скoрoсть ветра над акватoриями крупных рек и oзёр, а также на вершинах хoлмoв на 2-5 м/с выше, чем в oбычных услoвиях.
Атмoсфернoе давление в разных тoчках местнoсти мoжет значительнo oтличаться oт давления на метеoстанции, в зависимoсти oт услoвий рельефа (при пoдъёме на 10 м давление пoнижается примернo на 1 мм рт.ст.).